Location: Hylo
(54.6785°N, 112.2142°W)
Time: 12:19:35
(UTC+00:00)

ACS3 Solar Sail - Pass Details

Date: 21 September 2024
Orbit: 961 x 1035 km, 97.4° (Epoch: 08 October)

Event Time Altitude Azimuth Distance (km) Brightness Sun altitude
Exits shadow 03:42:47 10° 175° (S) 2,850 3.9 -19.0°
Reaches altitude 10° 03:42:49 10° 175° (S) 2,836 3.9 -19.0°
Maximum altitude 03:49:14 70° 259° (WSW) 1,105 2.2 -19.8°
Drops below altitude 10° 03:55:42 10° 343° (NNW) 2,849 4.9 -20.6°
Sets 03:58:14 0° 346° (NNW) 3,800 5.6 -20.9°
